GFSGL_con_lsi_057.txt.gz
Lid_Strength_Index
13 13 13 12 12 12 12 13 13 13 13 14 14 14 14 14 14 14 13 13 13 12 12 12 12 12 12 12 11 11 12 12 14 13 12 11 11 12 11 11 10 11 10
13 13 12 12 12 12 13 13 13 13 13 14 14 14 14 14 14 14 14 13 13 13 13 12 13 12 12 12 12 12 12 12 13 15 13 13 13 12 12 12 11 11 11
13 13 13 13 12 12 13 13 13 13 13 14 14 14 14 14 14 14 13 13 13 12 12 12 12 12 13 12 12 12 12 12 12 13 14 12 12 12 13 13 13 12 11
13 13 13 12 12 12 12 12 13 13 14 14 14 14 14 14 14 14 13 13 12 12 11 11 12 12 12 12 12 12 12 12 12 13 14 14 13 13 13 14 14 13 14
13 13 12 12 12 12 12 13 13 14 14 14 14 14 14 14 14 13 13 13 12 12 11 11 11 11 11 11 12 12 12 13 13 14 14 14 14 15 15 14 14 14 14
13 13 13 12 12 12 13 13 14 14 14 14 14 14 14 14 14 13 12 12 12 12 11 11 11 11 11 10 10 10 10 12 14 14 15 15 14 14 13 14 14 15 17
13 13 13 13 13 13 13 14 14 14 14 14 14 14 14 14 13 12 11 12 11 11 11 12 12 11 11 12 11 10 10 10 9 11 13 13 13 12 12 13 13 14 15
13 13 13 13 13 13 13 14 14 14 14 14 14 14 14 14 12 12 11 11 11 11 11 11 12 12 11 11 11 11 11 11 11 11 11 11 11 11 11 11 12 12 12
14 13 13 13 13 12 13 14 13 14 14 14 14 14 14 14 12 11 11 11 11 11 11 10 11 11 10 8 10 11 11 10 8 7 7 7 7 7 8 9 11 12 13
13 13 12 11 12 13 13 14 13 13 14 14 14 14 14 14 12 11 11 12 12 11 10 10 9 9 8 8 9 11 13 12 11 10 10 9 9 9 9 10 11 13 14
12 12 12 12 13 13 13 13 14 15 15 15 15 14 14 14 14 11 11 11 11 11 11 10 9 8 8 7 8 11 12 10 10 12 13 12 12 11 10 10 9 11 12
12 13 13 14 13 14 15 15 15 15 15 15 15 14 13 13 12 11 10 9 9 11 11 10 9 8 8 8 9 9 9 10 14 14 15 15 14 13 12 11 11 11 11
14 15 15 15 14 15 16 16 16 15 15 14 13 13 12 11 12 10 9 9 9 9 9 8 7 8 8 10 10 10 12 14 15 16 16 15 14 13 13 13 12 12 12
15 15 16 17 16 16 15 14 14 13 14 13 12 12 12 12 11 11 10 10 8 8 8 10 9 9 9 10 12 12 13 14 15 16 15 15 15 15 15 14 14 14 14
15 15 15 15 16 15 15 13 13 12 11 12 12 12 13 12 11 9 9 9 8 8 9 11 12 12 13 12 13 14 14 14 15 15 16 17 16 15 15 14 14 15 15
15 15 14 14 14 14 13 13 11 10 10 10 10 11 11 9 8 7 7 7 6 8 12 13 14 13 14 14 15 15 15 15 15 15 16 16 16 16 16 15 14 15 15
13 14 14 15 14 14 14 14 14 12 10 10 9 8 8 8 7 7 7 7 7 11 15 14 14 14 14 14 15 15 16 15 15 15 16 16 16 15 15 15 15 14 15
17 19 14 14 14 14 14 14 14 15 16 15 12 11 10 10 9 8 8 8 13 13 15 16 16 15 15 16 16 16 16 16 16 16 16 16 15 15 15 15 15 16 16
17 16 16 16 16 16 16 16 16 17 17 17 16 14 13 12 10 9 9 12 14 16 16 16 16 16 16 17 18 17 17 17 17 17 16 16 15 14 15 15 16 15 15
19 21 20 18 18 18 18 18 18 18 18 18 17 17 16 17 19 16 14 15 16 16 17 17 17 17 18 19 19 19 18 18 17 17 17 16 15 14 15 16 15 16 15
19 19 21 20 19 18 18 18 18 18 18 18 18 16 14 18 18 17 16 15 17 17 17 18 18 18 19 20 20 19 19 19 18 18 17 16 16 15 15 15 15 15 15
20 20 20 20 20 20 19 19 19 19 19 19 19 18 14 16 16 15 16 16 17 18 18 20 19 19 20 21 21 21 21 20 19 18 17 17 16 15 15 15 15 16 16
20 20 20 20 20 21 20 20 20 20 20 20 20 19 19 19 18 18 18 18 18 19 20 21 20 21 22 22 21 20 21 21 19 18 19 18 16 15 16 16 16 16 16
20 20 20 20 20 20 20 20 20 21 21 21 21 20 20 20 19 19 19 19 19 20 21 21 21 23 23 23 22 21 20 20 19 19 19 18 15 15 17 17 17 17 16
20 20 20 20 20 20 20 20 20 20 20 20 20 20 20 20 20 19 19 19 21 22 22 22 23 24 24 25 25 25 23 21 22 20 18 16 15 17 20 20 21 18 19
19 19 19 19 20 20 20 20 20 20 20 20 20 19 19 19 19 19 19 21 22 22 22 23 24 25 26 25 25 23 22 19 19 17 14 15 19 21 22 22 22 22 21

GFSGL_con_lsi_060.txt.gz
Lid_Strength_Index
15 15 15 15 15 15 16 16 17 17 17 17 16 16 16 17 17 17 17 17 17 17 16 16 15 14 15 15 14 14 14 15 16 15 14 13 14 14 13 12 12 12 12
15 15 15 15 16 16 16 16 17 17 17 17 17 17 17 17 17 17 17 17 17 16 15 15 15 13 15 15 15 15 15 14 15 16 14 14 14 13 13 14 13 12 13
15 15 16 16 16 16 17 17 16 17 17 17 17 17 17 17 17 17 17 16 16 15 15 15 14 15 15 15 15 15 14 13 13 14 14 13 13 13 13 13 13 13 12
15 16 17 17 16 16 17 17 17 17 17 18 17 17 17 17 17 16 16 16 15 15 14 14 14 14 14 15 14 13 13 13 13 14 14 15 14 13 13 14 15 13 13
16 16 16 16 16 16 16 16 17 17 17 17 17 18 18 17 16 16 15 15 15 14 14 14 13 13 11 11 12 12 13 14 14 14 15 14 15 14 14 13 14 14 14
16 16 16 16 16 16 16 16 17 17 18 18 18 17 17 16 14 14 13 14 13 14 14 13 13 12 12 10 10 9 10 12 14 15 15 14 13 13 12 13 14 15 16
16 16 16 15 15 16 16 17 17 18 18 18 17 17 17 16 13 12 12 13 14 14 13 13 12 11 12 12 11 10 9 9 8 10 13 13 13 12 12 13 13 13 14
15 15 15 15 15 16 16 17 18 17 18 17 17 17 16 15 12 11 12 13 13 13 12 12 12 12 11 11 11 11 10 10 9 9 9 10 10 9 10 10 10 10 10
15 15 15 15 16 16 16 17 17 17 17 17 17 17 17 16 12 11 12 14 13 12 11 11 11 11 9 8 9 11 11 11 9 8 8 7 7 8 8 11 13 13 14
14 14 14 15 15 16 16 17 17 17 17 16 15 16 17 19 12 11 11 12 15 12 11 10 9 10 7 7 9 11 13 12 11 11 11 11 10 10 9 10 11 13 13
15 15 15 15 15 15 16 18 18 18 17 18 17 18 18 17 16 11 9 11 12 12 11 11 9 8 7 6 6 10 12 9 12 14 14 13 13 12 12 11 11 12 15
16 16 16 17 16 16 17 19 19 19 20 21 21 19 17 15 13 11 9 8 9 11 12 10 10 7 6 6 7 8 7 9 15 15 15 15 15 14 13 13 12 12 12
17 18 19 19 18 18 19 20 20 20 19 19 18 18 17 14 14 10 9 8 7 9 9 9 7 6 7 9 9 8 10 15 16 17 16 15 14 14 13 14 13 13 13
19 19 19 19 20 21 19 18 19 19 19 18 17 16 17 16 15 14 13 12 10 9 9 11 10 8 8 9 12 11 12 12 14 15 15 14 14 15 15 15 16 15 16
19 19 20 20 21 20 19 19 17 18 16 20 18 17 18 18 15 11 12 15 14 11 10 14 18 17 17 15 16 15 14 14 14 15 15 16 15 15 15 15 15 16 17
20 20 20 19 20 19 19 20 13 12 11 10 9 13 18 11 9 8 7 7 6 6 11 20 19 17 16 14 16 16 15 15 15 15 16 16 16 16 16 15 14 15 16
20 19 19 19 19 20 21 21 22 17 11 9 9 8 8 7 7 6 6 6 6 6 18 21 18 17 17 15 16 17 16 15 15 16 16 16 16 16 16 15 15 15 16
22 21 21 22 22 22 22 22 22 22 23 20 14 11 10 9 9 8 7 7 10 10 22 19 18 18 18 17 18 19 18 16 17 17 17 18 17 17 17 16 15 16 16
21 22 23 23 23 23 23 23 22 24 24 25 23 17 15 12 11 10 9 11 12 16 20 18 17 18 19 18 19 22 21 19 19 19 18 18 18 17 17 16 16 15 16
26 23 24 23 21 22 24 25 24 24 24 24 23 23 23 23 26 25 21 18 18 19 18 17 18 18 20 20 22 24 21 23 22 23 20 19 18 17 17 16 16 16 16
23 23 23 24 25 27 26 26 25 26 26 27 26 25 14 16 17 23 21 19 17 20 17 17 17 18 19 21 24 25 23 22 25 25 20 19 18 19 18 15 16 16 17
25 27 28 29 27 26 28 27 27 28 28 27 25 26 15 19 20 20 19 18 20 20 19 18 19 20 20 21 24 25 26 25 24 27 21 20 20 19 17 16 17 17 17
28 28 28 28 28 26 28 30 29 28 27 28 26 25 27 26 25 24 21 20 21 20 20 20 21 21 21 21 24 24 25 24 25 26 21 21 20 20 17 17 18 18 18
28 28 27 28 28 28 29 29 28 26 26 26 27 26 25 25 25 23 20 21 20 20 20 21 21 21 21 23 24 27 27 24 26 23 23 21 21 20 17 22 21 21 20
29 29 29 28 30 29 29 29 28 29 28 26 25 26 25 24 21 22 20 19 19 20 21 21 21 22 22 23 26 29 28 22 23 23 23 22 22 20 17 25 26 24 26
28 28 29 29 29 29 30 28 28 27 27 26 25 25 24 21 20 20 20 19 20 21 21 21 22 23 24 25 28 26 25 21 22 22 22 20 18 17 24 25 26 27 26

GFSGL_con_lsi_063.txt.gz
Lid_Strength_Index
15 16 16 16 16 17 17 18 18 18 18 18 18 18 18 18 18 18 19 18 18 18 18 18 18 17 17 17 16 16 16 16 18 16 15 15 15 15 14 14 13 12 12
16 16 16 16 17 17 18 18 18 18 18 18 18 18 18 18 18 19 19 19 19 18 18 18 17 16 17 16 16 16 16 16 17 17 16 16 15 14 13 13 12 11 12
16 16 17 17 17 18 18 18 18 18 19 18 18 18 18 18 19 18 19 18 18 18 17 17 17 16 16 16 16 16 16 15 16 16 16 14 13 13 13 12 13 12 11
16 17 17 17 17 17 17 18 18 18 19 19 19 18 18 18 19 18 18 18 18 17 16 16 16 16 15 15 15 15 15 15 15 15 14 14 13 12 12 13 14 12 12
16 16 16 16 17 17 17 18 18 18 18 18 18 18 18 19 18 18 17 17 17 16 15 15 14 14 12 13 14 14 14 15 14 14 13 13 13 13 13 12 13 13 12
15 16 16 16 16 16 17 17 17 17 17 18 18 19 19 18 16 15 16 16 15 15 15 15 14 14 14 12 11 10 10 12 13 13 13 12 12 12 12 12 13 13 15
16 16 16 16 16 16 16 17 17 17 18 18 19 19 19 18 14 13 13 15 14 15 14 14 14 13 13 13 11 9 9 8 7 9 11 11 12 11 11 12 11 12 13
16 15 15 15 15 16 16 16 17 17 18 18 18 18 18 17 13 12 12 14 14 14 14 14 14 13 13 12 11 11 10 9 8 8 9 10 10 9 10 11 12 13 13
16 15 15 15 15 16 16 16 16 17 18 18 18 18 18 17 12 11 11 14 14 14 13 13 13 12 10 8 9 10 10 9 8 7 7 7 8 8 9 11 14 15 15
15 15 14 14 14 15 15 16 16 17 17 17 17 17 17 18 12 11 11 14 16 14 13 12 10 11 8 7 9 11 13 11 10 11 12 11 10 10 9 10 12 14 15
15 15 15 14 14 14 15 17 18 18 18 19 18 18 18 17 17 11 10 12 14 15 14 13 11 8 7 6 6 10 13 8 14 14 13 13 12 12 11 11 11 13 15
15 15 15 14 15 16 17 20 19 19 19 20 20 20 19 17 14 12 10 9 10 14 14 12 11 8 7 6 6 7 7 8 19 19 17 15 14 13 12 12 12 12 12
16 17 18 19 18 18 18 20 21 20 19 20 19 19 19 16 16 12 10 9 8 9 10 10 8 7 6 7 8 7 10 17 19 20 16 14 13 12 12 13 12 12 12
19 20 21 20 21 21 19 19 20 20 20 19 19 19 21 19 17 16 15 14 11 9 9 11 9 8 8 8 12 11 12 14 15 16 15 13 13 14 15 14 15 14 14
21 21 22 21 21 21 20 21 19 20 19 23 23 21 22 20 17 13 14 17 15 13 12 15 17 15 15 14 15 14 15 14 15 15 15 15 15 15 15 14 15 15 16
21 21 21 21 22 21 21 21 14 13 13 12 11 15 18 12 10 9 8 7 7 6 10 12 14 14 14 14 15 16 15 15 14 16 16 16 15 16 16 15 15 15 16
20 20 20 20 21 21 22 21 22 19 13 11 10 10 9 9 8 8 7 7 6 6 9 8 14 14 15 15 15 16 16 15 15 18 17 16 16 17 17 17 16 15 16
23 22 22 22 21 22 22 24 24 25 25 21 16 14 13 11 10 10 9 9 12 11 13 16 16 17 16 16 16 17 17 17 17 20 19 19 19 18 18 18 17 17 17
22 23 23 23 24 24 24 25 25 27 28 28 28 20 19 14 13 13 12 21 22 19 17 17 18 18 16 16 17 18 18 19 19 24 24 22 21 19 19 18 17 16 17
25 23 24 25 25 25 25 26 27 29 29 30 30 29 28 28 29 28 28 29 24 20 19 18 17 17 17 18 18 19 21 21 22 27 24 24 22 20 19 19 18 17 18
26 26 25 26 27 29 30 30 29 30 31 32 31 30 15 20 24 26 28 26 24 20 20 20 18 19 19 19 19 20 22 20 21 26 26 26 23 21 20 20 18 18 18
27 28 28 28 27 30 31 31 31 31 32 32 31 31 17 28 30 28 26 28 25 21 20 20 20 22 20 19 19 20 21 21 22 27 27 24 23 24 21 21 19 19 20
26 27 29 32 31 29 31 33 32 32 32 33 32 30 31 31 30 28 27 25 26 23 21 21 21 22 20 20 20 20 21 21 22 28 27 25 26 26 22 21 19 20 24
28 29 29 31 31 32 32 32 32 30 31 31 32 29 29 29 28 27 26 25 26 26 23 21 20 21 20 20 20 21 22 22 25 28 28 24 24 25 22 22 20 23 24
31 31 30 30 32 31 32 32 31 33 32 30 28 30 29 27 27 26 26 25 25 27 25 22 20 21 21 21 22 22 23 22 25 28 31 30 25 25 24 22 20 22 28
31 29 30 31 32 34 34 32 32 31 30 28 28 27 27 27 25 25 25 26 26 26 25 22 21 22 22 22 22 22 22 21 24 25 27 28 25 23 22 20 21 23 25

GFSGL_con_lsi_069.txt.gz
Lid_Strength_Index
14 14 15 15 16 16 17 17 18 18 18 18 18 18 18 19 19 19 19 19 20 20 20 19 19 19 20 20 19 19 19 19 21 20 19 18 18 18 16 16 15 15 14
14 15 15 16 17 17 18 18 18 18 18 18 18 18 18 18 19 19 19 19 20 20 20 19 20 18 20 20 20 19 19 19 20 21 19 19 18 17 16 16 14 13 13
15 16 16 17 18 18 18 18 18 19 19 19 19 19 19 19 19 19 19 19 20 20 19 19 19 19 19 19 20 20 19 18 19 20 19 17 17 16 15 14 14 13 12
16 16 17 17 17 18 18 19 19 19 19 19 19 19 19 19 18 18 18 19 19 19 19 19 19 19 19 19 19 19 19 19 18 18 18 18 16 15 14 15 15 13 13
16 16 17 17 17 18 19 19 19 19 19 18 19 19 19 18 18 18 18 19 19 19 19 18 18 18 16 17 18 18 18 18 18 18 17 16 16 15 15 14 15 13 13
17 17 17 17 18 18 18 18 19 19 19 19 19 19 19 18 15 14 17 18 18 18 19 18 18 18 17 14 13 13 14 17 21 20 16 16 15 14 14 14 13 14 16
17 17 17 17 18 18 18 18 19 19 19 19 19 19 18 18 14 13 14 17 17 18 18 18 17 17 17 17 15 12 12 10 10 13 14 13 14 13 13 12 12 13 13
17 17 17 17 18 18 18 18 18 18 19 19 18 18 17 17 13 12 12 16 17 17 17 17 17 17 17 17 16 15 15 14 13 12 12 12 11 10 9 10 12 13 13
16 17 17 16 17 18 18 18 18 18 18 18 17 17 17 17 13 12 13 16 16 17 17 17 17 17 15 12 13 15 14 13 10 8 7 7 6 6 7 10 15 17 16
16 16 16 16 16 17 17 17 17 17 16 17 17 16 16 16 14 12 12 16 17 16 16 16 14 15 12 11 12 16 15 13 13 13 12 11 10 11 9 10 12 15 15
16 16 16 16 16 16 16 17 17 16 17 17 17 17 16 17 17 12 11 15 15 17 17 16 15 12 10 9 8 12 12 11 11 10 13 14 13 13 12 11 11 12 14
15 16 15 15 15 15 15 16 16 16 16 16 17 18 19 19 17 14 12 11 13 17 16 15 14 11 9 8 8 8 7 7 12 17 18 17 15 14 13 12 11 11 11
15 15 14 14 14 14 14 15 16 15 15 16 18 18 19 19 18 14 14 12 11 12 13 12 10 9 8 8 7 7 8 12 16 19 17 15 14 13 12 13 13 12 12
14 14 14 14 14 14 14 14 14 16 16 16 18 18 20 21 20 19 18 17 14 13 13 16 13 9 9 9 10 10 10 11 13 14 15 15 14 15 16 14 15 14 15
15 17 15 15 16 18 19 18 18 19 16 18 19 19 21 21 19 16 18 21 21 17 16 22 21 17 14 15 14 14 13 13 13 14 14 16 16 15 15 14 14 16 18
20 20 20 20 20 21 21 21 16 16 15 15 15 18 22 16 13 12 10 9 9 8 11 14 15 15 15 14 14 13 13 14 14 14 15 16 16 17 17 16 15 17 18
20 21 21 21 21 21 20 19 19 16 12 12 12 12 12 12 12 11 11 11 12 17 26 26 24 22 19 18 17 15 15 14 14 14 15 16 16 17 17 18 17 17 18
22 22 21 22 22 22 22 22 19 19 21 25 17 16 14 14 14 14 13 18 26 26 31 30 29 28 25 22 20 19 17 17 17 16 16 17 18 19 21 19 18 19 19
23 24 24 25 25 24 24 25 25 26 27 30 29 23 24 16 15 15 18 31 33 33 33 32 32 30 27 25 22 20 20 19 18 18 20 20 20 21 22 20 19 18 18
25 24 24 24 25 25 25 25 26 27 28 29 30 30 33 28 30 32 34 35 35 35 35 34 31 31 29 25 23 26 26 25 21 20 21 21 21 20 20 20 19 19 19
26 26 25 26 27 27 27 26 26 26 26 27 28 29 20 28 31 33 33 36 36 36 34 34 33 31 31 28 30 27 28 23 23 21 21 21 21 22 20 19 19 19 20
27 28 27 27 26 25 27 26 26 26 27 28 30 29 18 29 33 35 37 37 36 35 34 34 32 31 28 28 28 26 25 25 23 21 20 21 22 21 21 20 20 20 20
26 27 28 29 27 27 27 28 27 27 27 27 27 29 33 35 37 37 36 36 36 35 34 36 34 29 28 29 29 25 23 25 22 21 21 22 21 21 22 22 22 22 21
26 25 25 27 28 28 27 28 26 25 25 27 29 32 33 34 35 35 35 35 35 33 34 34 32 29 28 28 28 27 24 23 23 21 21 22 22 22 24 24 26 23 22
28 27 26 26 27 28 28 26 26 27 27 27 30 33 34 34 34 35 34 34 33 34 31 30 31 30 28 27 27 28 28 21 22 21 23 24 24 24 27 32 31 28 24
28 28 28 29 27 26 26 27 28 27 29 31 32 33 33 32 31 32 31 31 29 28 28 28 28 28 28 27 27 25 24 20 21 22 24 25 25 28 36 33 33 29 26

GFSGL_con_lsi_072.txt.gz
Lid_Strength_Index
14 15 14 15 15 16 16 17 17 17 18 18 18 18 18 18 18 19 19 19 19 19 19 19 19 19 20 20 20 20 20 20 22 20 20 19 19 19 17 17 16 16 15
14 15 15 15 16 16 17 17 17 18 18 18 18 18 19 19 19 19 19 19 19 19 19 19 20 19 20 20 20 20 20 20 21 22 20 20 19 18 17 18 16 15 15
15 15 15 16 17 17 17 18 18 18 19 19 18 19 19 19 19 19 19 19 19 19 19 19 19 19 20 20 21 21 21 19 20 21 21 19 18 18 17 16 16 16 14
15 15 16 16 16 17 17 18 18 19 19 19 18 19 19 19 19 19 19 19 19 18 18 18 19 19 19 20 20 20 20 20 20 20 20 20 19 17 17 18 17 15 15
16 16 16 16 16 17 18 18 18 19 19 19 19 19 19 19 19 19 19 19 18 18 18 18 18 18 16 17 19 19 19 20 20 20 20 20 19 18 18 16 16 15 15
15 16 16 16 17 17 18 18 19 19 19 19 19 19 20 19 16 16 18 18 17 18 18 18 18 17 17 14 14 14 16 19 24 23 20 19 17 16 16 16 15 15 17
15 16 16 16 17 18 18 18 18 19 19 19 19 19 19 19 15 15 15 17 17 18 18 17 17 17 17 18 15 13 12 12 12 17 20 17 15 14 14 14 14 15 16
16 16 16 16 17 18 18 18 18 19 19 19 19 18 18 19 14 13 13 17 17 17 17 17 17 17 17 17 17 17 17 16 15 14 14 14 13 12 12 12 13 16 15
16 17 17 16 17 18 18 18 18 19 19 19 18 18 18 18 14 13 13 16 16 17 17 17 16 16 15 13 15 17 17 15 13 10 9 8 7 7 7 12 21 22 17
16 16 16 16 16 17 17 17 18 18 18 18 18 18 17 17 13 12 12 15 16 16 16 16 14 15 13 12 14 16 17 15 14 13 12 11 9 12 9 11 13 18 17
16 16 16 16 17 16 16 17 17 17 18 18 18 18 17 16 15 11 12 15 14 15 15 15 15 12 11 11 11 13 13 12 11 11 12 13 14 14 13 13 12 13 15
16 16 16 16 16 16 16 16 17 17 18 18 18 19 18 17 15 13 11 10 12 14 14 14 15 12 11 10 10 9 8 7 9 12 15 16 16 15 14 13 12 12 12
15 15 15 15 15 15 16 16 16 16 17 17 17 17 18 18 17 12 12 11 10 11 13 14 12 11 10 9 8 7 8 9 11 15 15 15 14 13 13 14 13 13 13
15 15 15 15 15 14 14 14 15 15 16 16 16 16 16 18 17 17 16 15 15 15 16 17 15 11 10 10 14 12 12 11 11 12 12 12 13 15 16 15 17 17 18
14 14 14 13 14 15 16 14 14 15 13 14 15 14 18 18 18 16 17 19 20 17 19 22 21 18 18 18 19 18 17 17 15 14 13 14 15 15 16 16 16 20 21
16 15 15 16 16 17 18 19 15 15 15 14 14 17 20 15 13 12 12 12 11 10 17 21 23 21 20 19 19 18 17 16 15 14 14 15 15 16 17 17 16 21 21
20 21 19 18 18 18 18 18 18 15 13 13 13 13 14 13 11 11 10 11 13 17 26 29 27 25 25 22 23 22 20 18 17 17 16 16 16 17 17 18 18 18 18
23 22 21 21 21 20 20 20 17 16 17 21 14 13 12 12 12 12 12 17 26 27 32 32 31 30 28 27 26 25 23 21 21 20 19 18 18 18 19 20 19 20 19
23 24 24 24 24 23 22 23 23 22 23 26 25 23 23 13 13 15 18 27 31 32 34 34 34 33 31 31 29 27 25 26 25 26 26 23 20 21 22 21 20 19 18
26 24 24 24 24 24 24 24 26 26 26 27 29 30 32 26 29 32 35 35 34 34 36 35 35 35 35 34 31 31 32 31 30 30 27 26 25 22 21 22 20 19 19
25 26 25 26 26 26 26 25 26 26 27 27 27 26 21 26 29 32 33 36 35 37 36 36 36 36 36 35 35 34 33 30 30 28 26 27 27 26 22 20 20 19 19
27 27 27 27 26 26 28 27 26 26 26 25 28 30 15 31 33 31 33 35 37 36 36 36 36 35 33 33 33 34 32 31 32 30 26 26 26 24 22 21 20 19 20
27 28 28 29 28 27 28 30 28 27 27 27 27 29 32 33 33 36 36 37 39 38 38 38 36 34 34 33 34 31 30 28 28 28 25 27 26 24 22 22 21 21 21
27 27 28 30 30 29 30 31 30 29 29 31 32 32 30 32 36 36 36 36 38 36 38 37 35 33 33 32 34 34 31 28 30 25 25 23 25 24 22 22 22 22 22
29 28 28 28 27 27 27 28 28 31 31 29 30 29 28 30 34 33 33 36 35 36 33 33 33 32 30 29 31 32 31 23 27 27 29 29 28 27 24 27 26 32 30
27 26 27 26 28 29 29 27 28 26 26 25 25 25 26 28 28 28 31 33 31 31 31 31 31 29 29 28 28 26 25 21 23 24 27 28 28 27 31 32 36 35 32

GFSGL_con_lsi_075.txt.gz
Lid_Strength_Index
11 12 13 13 13 14 15 16 16 17 17 17 17 18 17 17 17 17 17 17 17 18 18 18 18 18 18 18 17 17 18 17 17 17 17 16 16 16 16 15 15 15 14
11 12 13 14 14 15 15 16 17 17 17 18 18 18 17 18 17 17 18 18 18 18 18 19 19 19 18 18 18 18 17 17 17 18 18 17 17 16 16 16 15 15 14
13 13 13 14 15 15 15 17 17 17 18 18 18 18 18 18 18 18 18 18 18 18 18 19 18 18 18 18 18 17 17 18 17 18 18 17 17 16 16 15 15 15 14
13 13 14 14 14 15 15 16 17 17 18 18 18 18 18 18 18 18 19 19 19 18 18 18 18 17 17 17 18 18 18 18 18 18 18 18 17 16 16 16 16 14 15
14 14 14 14 14 15 16 17 17 17 17 18 18 18 18 18 18 18 19 18 18 18 18 18 17 17 16 16 17 17 17 18 18 18 18 18 17 17 17 15 16 15 15
14 14 14 15 15 16 16 17 17 18 18 18 18 19 19 18 16 16 18 18 18 18 19 17 17 16 16 14 14 15 16 17 18 18 17 18 16 15 15 15 16 16 17
14 14 15 15 16 16 16 17 18 18 18 18 18 18 18 18 14 15 16 18 18 18 17 17 17 17 16 16 14 13 12 12 12 15 16 15 15 14 14 15 14 14 14
15 15 15 16 16 16 17 17 17 17 18 18 18 18 18 18 14 14 15 17 17 17 16 16 16 16 16 16 17 16 15 15 14 13 13 13 13 13 12 12 13 13 14
15 16 16 16 16 17 17 17 17 17 18 18 18 18 18 18 14 13 15 17 17 16 16 16 16 16 14 13 15 15 15 14 13 11 10 10 9 8 8 10 14 15 14
16 16 16 16 17 17 16 17 17 17 17 17 18 18 17 17 13 13 14 15 15 15 16 15 14 15 13 12 13 14 15 14 14 14 13 11 9 10 8 9 10 13 14
16 16 16 16 17 17 17 16 17 17 17 17 18 18 17 17 14 12 11 13 13 15 14 14 14 12 10 10 10 11 13 12 12 12 12 12 12 11 11 10 11 12 13
16 16 16 16 16 16 17 17 17 17 17 17 17 18 17 17 15 12 10 11 12 13 13 13 13 11 10 10 10 10 10 9 9 10 12 12 13 12 12 11 11 11 11
17 16 16 16 15 16 16 16 16 16 17 17 17 18 18 17 16 12 10 10 9 11 12 12 11 10 10 10 11 10 11 11 11 12 12 12 12 11 11 12 12 11 12
15 15 15 15 15 15 15 15 15 15 16 16 16 16 16 17 16 15 13 11 11 10 11 13 13 13 12 13 14 13 13 13 13 13 13 12 12 12 13 12 14 14 15
14 15 14 14 14 15 14 14 14 14 13 14 14 13 14 16 15 14 14 15 15 14 18 18 17 16 16 16 17 17 16 16 15 14 14 14 13 13 13 13 14 15 16
15 14 13 13 14 16 16 16 13 12 11 11 11 12 16 13 13 12 12 12 11 11 18 19 19 19 18 19 19 19 18 18 17 16 16 16 16 16 15 15 15 16 17
14 15 15 15 15 16 16 16 17 14 12 12 12 12 13 12 11 11 11 11 10 14 20 21 20 20 20 20 20 20 20 19 18 18 18 18 17 17 17 17 17 17 17
18 16 15 15 16 16 16 15 15 15 16 16 12 13 11 10 10 10 10 15 20 21 22 22 23 23 23 22 22 22 21 20 20 20 20 20 19 19 19 19 18 19 19
21 22 21 20 18 17 17 17 17 19 19 22 20 18 18 11 11 14 15 22 21 23 25 24 25 25 24 24 23 23 23 22 22 22 22 22 21 21 20 20 20 20 19
25 23 23 23 23 22 21 21 21 21 22 23 22 23 25 20 23 25 26 24 24 25 25 25 26 26 26 25 24 25 24 24 23 23 23 23 21 21 20 21 21 20 19
26 25 25 25 24 24 23 22 22 22 23 24 25 27 20 23 24 25 25 26 25 26 26 26 27 27 27 27 27 26 26 24 24 25 24 23 23 22 22 21 20 20 19
27 27 27 27 26 25 26 26 25 25 25 25 28 26 14 24 25 28 28 29 29 28 28 27 27 28 27 27 26 25 25 25 25 26 24 24 23 22 22 21 21 20 19
27 27 28 29 28 27 27 28 26 25 26 26 26 25 25 26 27 27 28 28 29 28 30 31 29 29 29 29 28 26 26 25 24 25 24 24 23 23 23 22 22 21 21
28 27 28 29 29 28 28 28 27 27 25 26 25 26 25 27 27 26 26 27 29 29 30 30 29 28 28 28 29 28 27 26 26 26 25 24 24 24 23 23 22 22 22
29 28 28 29 29 29 28 27 25 25 25 25 26 26 27 27 27 27 27 27 27 27 28 28 29 29 28 28 28 28 28 23 23 26 26 25 25 26 26 25 24 24 26
29 28 28 27 27 27 27 27 27 26 26 26 26 25 25 25 25 24 25 27 27 27 27 27 28 29 28 27 27 25 25 21 23 24 25 25 26 26 27 26 27 28 28

GFSGL_con_lsi_078.txt.gz
Lid_Strength_Index
8 7 8 8 9 10 11 11 13 14 16 17 17 17 16 16 15 15 14 14 15 15 15 15 16 15 16 16 16 16 16 15 15 16 15 14 15 14 14 13 13 13 13
8 8 8 9 10 11 12 13 14 15 16 16 16 17 17 17 15 16 15 15 15 16 16 16 17 17 17 17 17 17 16 15 15 16 15 15 15 14 14 14 14 14 13
8 8 9 9 11 12 13 13 14 15 16 17 17 17 17 17 17 16 16 15 15 16 16 16 17 17 18 18 17 17 16 17 15 15 15 15 15 14 14 13 13 13 13
9 9 9 10 11 12 13 14 15 15 16 17 17 17 17 17 17 17 17 16 16 16 16 16 17 17 17 18 17 16 16 16 16 16 15 15 15 14 15 15 14 12 13
10 10 10 10 11 12 13 14 14 15 16 16 17 17 18 18 17 18 17 17 16 16 16 17 16 16 16 16 16 16 16 15 16 16 16 16 15 15 15 13 14 13 12
10 10 10 11 12 13 14 14 15 15 16 17 17 17 18 18 15 15 16 16 17 17 17 18 17 17 15 14 14 14 14 15 15 15 15 15 15 14 13 13 13 14 15
11 11 11 12 13 13 14 15 15 15 16 17 17 17 18 17 14 15 15 16 17 17 18 18 17 17 16 15 13 13 13 13 13 14 14 13 13 12 12 13 13 13 13
12 12 12 13 13 14 15 15 16 16 16 17 17 17 17 17 14 14 15 16 17 16 17 16 16 16 15 15 15 15 14 14 13 12 12 11 11 11 12 12 12 12 11
13 13 13 13 14 14 15 15 15 16 16 16 17 17 17 16 14 14 15 16 16 16 16 15 15 15 14 13 15 15 15 14 13 12 11 10 10 9 9 10 11 13 13
13 13 13 13 14 14 14 15 15 15 16 17 17 17 17 16 13 13 15 16 15 16 16 15 14 14 14 13 13 13 14 13 13 12 12 11 10 10 9 9 9 11 11
13 13 14 13 14 14 14 14 15 16 17 17 17 17 16 15 13 13 13 15 14 15 15 15 15 13 13 12 11 12 12 11 11 11 10 10 11 11 10 9 9 9 10
14 14 14 14 14 14 15 15 15 15 16 16 16 17 16 15 13 12 12 12 12 12 13 13 13 11 10 10 10 10 9 9 9 10 11 11 11 11 11 10 10 10 9
15 15 15 14 14 13 14 14 15 15 16 16 16 16 17 16 14 11 11 11 11 12 12 12 12 11 10 10 10 11 12 12 12 12 12 12 11 11 11 11 10 10 11
15 15 14 14 14 14 13 14 14 14 15 15 15 15 15 15 14 12 11 10 10 10 11 11 11 11 11 13 13 13 13 13 13 13 13 12 12 12 12 11 12 13 13
14 14 13 13 13 13 13 13 13 13 12 13 12 12 14 15 14 12 11 11 11 11 15 14 14 14 14 14 15 15 14 14 14 14 14 14 14 13 13 13 13 14 15
13 12 12 13 13 13 13 13 12 11 11 10 10 11 11 11 11 11 10 10 10 11 13 14 14 14 14 14 15 15 16 17 15 15 15 15 15 15 15 15 14 15 16
12 12 12 13 13 14 14 13 13 12 10 10 10 10 11 10 10 9 9 8 9 10 13 14 14 14 14 15 16 17 17 16 17 16 16 16 16 16 16 16 16 17 17
12 12 12 13 13 13 12 12 12 12 13 13 11 11 10 10 9 9 9 11 15 15 14 14 14 15 16 17 17 17 17 17 17 17 17 17 17 17 17 17 17 18 17
13 13 13 12 12 12 12 12 11 12 13 14 13 14 11 10 10 9 11 13 14 15 16 16 16 17 18 17 18 18 18 18 18 18 18 18 18 18 18 18 18 18 18
18 18 15 14 15 14 14 14 14 14 15 14 13 14 15 14 15 17 18 17 16 16 17 18 19 19 19 19 19 19 19 19 19 19 18 18 18 18 19 18 18 18 18
18 18 19 16 15 15 15 15 15 15 15 15 14 18 17 13 15 17 18 19 18 18 19 19 20 20 20 20 20 20 20 18 19 19 19 18 19 20 19 18 18 18 18
17 18 17 17 18 17 16 16 16 16 16 16 18 17 13 16 18 18 19 20 20 19 19 19 20 20 20 21 21 20 20 20 19 19 19 19 20 19 19 18 19 19 18
19 19 19 20 20 21 19 19 18 17 17 17 18 18 17 18 19 19 19 20 21 22 22 22 21 22 22 23 21 20 20 20 19 19 19 19 19 19 19 19 19 20 19
19 19 20 21 20 20 19 19 19 20 18 19 19 19 19 19 20 20 21 21 22 22 23 24 23 22 22 22 23 22 22 21 19 20 21 20 20 20 20 19 20 20 20
20 20 20 20 20 20 21 20 19 20 20 20 20 20 20 21 21 21 21 22 23 23 23 24 23 23 24 24 23 22 21 20 21 21 21 21 21 21 21 21 21 20 21
22 22 22 22 21 21 21 20 20 21 21 21 21 21 21 21 21 21 22 22 23 23 23 22 23 24 24 24 23 22 22 20 22 23 21 20 21 21 21 22 22 22 22